TRA6423 EHAM-LPPD

Flight info

Callsign TRA6423
Flight time 3h 36m
Altitude 32000
Route IDRID L980 LAM L179 ICTAM M197 ENHAQ DCT LUFMA DCT LND DCT TAKAS/M074F320 DCT 48N010W 45N016W 42N020W DCT BAVAS
Aircraft B738/M-SDE2E3FGHIRWXY/LB1

Departure

Time 2026-04-27 13:49
Airport Amsterdam Airport Schiphol (EHAM)

Arrival

Time 2026-04-27 17:25
Airport João Paulo II Airport (LPPD)
Time Latitude Longitude Altitude Speed Heading
2026-04-27 13:12 52.30506 4.76551 -2 ft 0 kts 59°
2026-04-27 13:35 52.30502 4.76539 -2 ft 3 kts 59°
2026-04-27 13:35 52.30492 4.76511 -2 ft 3 kts 66°
2026-04-27 13:35 52.30486 4.76482 -2 ft 3 kts 96°
2026-04-27 13:36 52.30490 4.76463 -2 ft 1 kts 135°
2026-04-27 13:36 52.30490 4.76461 -2 ft 1 kts 136°
2026-04-27 13:37 52.30490 4.76463 -2 ft 1 kts 136°
2026-04-27 13:38 52.30480 4.76475 -2 ft 3 kts 147°
2026-04-27 13:38 52.30452 4.76499 -2 ft 6 kts 151°
2026-04-27 13:38 52.30407 4.76539 -2 ft 9 kts 150°
2026-04-27 13:38 52.30347 4.76581 -2 ft 10 kts 179°
2026-04-27 13:39 52.30287 4.76504 -2 ft 13 kts 239°
2026-04-27 13:39 52.30237 4.76372 -2 ft 15 kts 238°
2026-04-27 13:39 52.30179 4.76220 -2 ft 17 kts 238°
2026-04-27 13:39 52.30114 4.76049 -2 ft 19 kts 238°
2026-04-27 13:40 52.30042 4.75863 -2 ft 20 kts 238°
2026-04-27 13:40 52.29963 4.75658 -2 ft 22 kts 237°
2026-04-27 13:40 52.29883 4.75448 -2 ft 22 kts 238°
2026-04-27 13:40 52.29840 4.75225 -2 ft 21 kts 284°
2026-04-27 13:41 52.29926 4.75037 -2 ft 20 kts 311°
2026-04-27 13:41 52.30019 4.74866 -2 ft 20 kts 311°
2026-04-27 13:41 52.30111 4.74697 5 ft 20 kts 311°
2026-04-27 13:41 52.30203 4.74528 9 ft 21 kts 311°
2026-04-27 13:42 52.30302 4.74341 5 ft 24 kts 309°
2026-04-27 13:42 52.30455 4.74195 -2 ft 26 kts
2026-04-27 13:42 52.30633 4.74213 -2 ft 25 kts
2026-04-27 13:42 52.30799 4.74228 -2 ft 23 kts
2026-04-27 13:43 52.30958 4.74241 -2 ft 23 kts
2026-04-27 13:43 52.31121 4.74257 -2 ft 25 kts
2026-04-27 13:43 52.31299 4.74275 -2 ft 26 kts
2026-04-27 13:43 52.31488 4.74293 -2 ft 28 kts
2026-04-27 13:44 52.31679 4.74310 -2 ft 27 kts
2026-04-27 13:44 52.31859 4.74325 -2 ft 25 kts
2026-04-27 13:44 52.32017 4.74293 -2 ft 22 kts 307°
2026-04-27 13:44 52.32036 4.74048 -3 ft 23 kts 272°
2026-04-27 13:45 52.32046 4.73767 -2 ft 27 kts 273°
2026-04-27 13:45 52.32062 4.73442 -2 ft 30 kts 285°
2026-04-27 13:45 52.32197 4.73203 -2 ft 28 kts 319°
2026-04-27 13:45 52.32342 4.73000 -2 ft 27 kts 319°
2026-04-27 13:46 52.32479 4.72808 -2 ft 25 kts 320°
2026-04-27 13:46 52.32608 4.72630 -2 ft 23 kts 320°
2026-04-27 13:46 52.32720 4.72445 -2 ft 23 kts 311°
2026-04-27 13:46 52.32829 4.72244 -2 ft 25 kts 311°
2026-04-27 13:47 52.32954 4.72013 -2 ft 29 kts 310°
2026-04-27 13:47 52.33086 4.71765 -2 ft 28 kts 311°
2026-04-27 13:47 52.33141 4.71533 -2 ft 13 kts 253°
2026-04-27 13:47 52.33147 4.71394 -2 ft 13 kts 303°
2026-04-27 13:48 52.33205 4.71288 -2 ft 12 kts 311°
2026-04-27 13:48 52.33262 4.71182 -2 ft 13 kts 311°
2026-04-27 13:48 52.33325 4.71065 -3 ft 15 kts 311°
2026-04-27 13:48 52.33407 4.70953 -3 ft 16 kts 343°
2026-04-27 13:49 52.33651 4.70965 0 ft 64 kts
2026-04-27 13:49 52.34285 4.71020 -4 ft 119 kts
2026-04-27 13:49 52.35267 4.71110 2 ft 162 kts
2026-04-27 13:49 52.36398 4.71204 617 ft 159 kts
2026-04-27 13:50 52.37512 4.71325 1259 ft 163 kts
2026-04-27 13:50 52.38666 4.71441 1801 ft 171 kts
2026-04-27 13:50 52.39955 4.71554 2026 ft 197 kts
2026-04-27 13:50 52.41399 4.71674 2204 ft 219 kts
2026-04-27 13:51 52.42936 4.71438 2494 ft 232 kts 340°
2026-04-27 13:51 52.44343 4.69949 2755 ft 252 kts 317°
2026-04-27 13:51 52.45581 4.67889 3451 ft 254 kts 315°
2026-04-27 13:51 52.46519 4.65426 4195 ft 260 kts 285°
2026-04-27 13:52 52.46726 4.62498 4950 ft 264 kts 273°
2026-04-27 13:52 52.46745 4.59441 5627 ft 268 kts 272°
2026-04-27 13:52 52.46728 4.56365 6308 ft 271 kts 266°
2026-04-27 13:52 52.46127 4.53464 6928 ft 278 kts 236°
2026-04-27 13:53 52.43076 4.49532 8278 ft 281 kts 216°
2026-04-27 13:53 52.41723 4.47283 8930 ft 278 kts 242°
2026-04-27 13:53 52.40820 4.44527 9610 ft 279 kts 244°
2026-04-27 13:54 52.39921 4.41727 10318 ft 278 kts 243°
2026-04-27 13:54 52.39000 4.38859 10636 ft 293 kts 243°
2026-04-27 13:54 52.38342 4.36821 10749 ft 306 kts 243°
2026-04-27 13:54 52.37326 4.33683 10892 ft 324 kts 243°
2026-04-27 13:55 52.36237 4.30334 11042 ft 342 kts 243°
2026-04-27 13:55 52.35086 4.26809 11211 ft 358 kts 243°
2026-04-27 13:55 52.33893 4.23162 11604 ft 366 kts 243°
2026-04-27 13:55 52.32683 4.19475 12160 ft 369 kts 243°
2026-04-27 13:56 52.31461 4.15774 12768 ft 371 kts 241°
2026-04-27 13:56 52.30041 4.12235 13369 ft 374 kts 234°
2026-04-27 13:56 52.28456 4.08901 13984 ft 377 kts 232°
2026-04-27 13:56 52.26794 4.05562 14545 ft 380 kts 232°
2026-04-27 13:57 52.25118 4.02205 15118 ft 382 kts 232°
2026-04-27 13:57 52.23443 3.98812 15710 ft 384 kts 233°
2026-04-27 13:57 52.21774 3.95395 16265 ft 386 kts 233°
2026-04-27 13:57 52.20107 3.91955 16892 ft 387 kts 233°
2026-04-27 13:58 52.18458 3.88537 17427 ft 390 kts 233°
2026-04-27 13:58 52.16776 3.85044 17924 ft 394 kts 233°
2026-04-27 13:58 52.15076 3.81515 18441 ft 397 kts 233°
2026-04-27 13:58 52.13356 3.77949 18918 ft 400 kts 233°
2026-04-27 13:59 52.11632 3.74378 19392 ft 402 kts 234°
2026-04-27 13:59 52.09891 3.70778 19873 ft 404 kts 234°
2026-04-27 13:59 52.08143 3.67169 20323 ft 406 kts 234°
2026-04-27 13:59 52.06406 3.63587 20765 ft 409 kts 234°
2026-04-27 14:00 52.04639 3.59950 21207 ft 411 kts 234°
2026-04-27 14:00 52.02862 3.56294 21632 ft 413 kts 234°
2026-04-27 14:00 52.01073 3.52622 22056 ft 416 kts 234°
2026-04-27 14:00 51.99266 3.48915 22465 ft 418 kts 234°
2026-04-27 14:01 51.97516 3.45152 22912 ft 418 kts 236°
2026-04-27 14:01 51.95799 3.41318 23324 ft 420 kts 237°
2026-04-27 14:01 51.94080 3.37454 23626 ft 424 kts 237°
2026-04-27 14:01 51.92365 3.33622 23969 ft 427 kts 236°
2026-04-27 14:02 51.90609 3.29732 24346 ft 428 kts 236°
2026-04-27 14:02 51.88840 3.25842 24728 ft 428 kts 236°
2026-04-27 14:02 51.87106 3.21923 25061 ft 428 kts 240°
2026-04-27 14:02 51.85753 3.17650 25359 ft 427 kts 250°
2026-04-27 14:03 51.84797 3.13117 25676 ft 427 kts 256°
2026-04-27 14:03 51.84240 3.08398 25989 ft 427 kts 264°
2026-04-27 14:03 51.83949 3.03614 26297 ft 428 kts 265°
2026-04-27 14:03 51.83672 2.98817 26595 ft 429 kts 265°
2026-04-27 14:04 51.83389 2.94056 26879 ft 431 kts 265°
2026-04-27 14:04 51.83089 2.89236 27206 ft 431 kts 264°
2026-04-27 14:04 51.82779 2.84413 27586 ft 430 kts 264°
2026-04-27 14:04 51.82463 2.79614 28029 ft 427 kts 264°
2026-04-27 14:05 51.82146 2.74842 28484 ft 425 kts 264°
2026-04-27 14:05 51.81829 2.70100 28916 ft 423 kts 264°
2026-04-27 14:05 51.81510 2.65368 29303 ft 422 kts 264°
2026-04-27 14:05 51.81191 2.60708 29700 ft 421 kts 264°
2026-04-27 14:06 51.80868 2.56021 30129 ft 419 kts 264°
2026-04-27 14:06 51.80543 2.51346 30498 ft 418 kts 264°
2026-04-27 14:06 51.80218 2.46686 30786 ft 417 kts 264°
2026-04-27 14:06 51.79892 2.42021 31049 ft 417 kts 264°
2026-04-27 14:07 51.79563 2.37341 31165 ft 421 kts 264°
2026-04-27 14:07 51.79229 2.32609 31307 ft 424 kts 264°
2026-04-27 14:07 51.78893 2.27885 31613 ft 423 kts 264°
2026-04-27 14:07 51.78560 2.23236 31960 ft 420 kts 264°
2026-04-27 14:08 51.78246 2.18567 32276 ft 418 kts 265°
2026-04-27 14:08 51.77697 2.09136 32280 ft 422 kts 265°
2026-04-27 14:09 51.77162 1.99791 32278 ft 416 kts 265°
2026-04-27 14:09 51.76607 1.90466 32272 ft 415 kts 265°
2026-04-27 14:10 51.76044 1.81214 32293 ft 416 kts 265°
2026-04-27 14:10 51.75471 1.71932 32297 ft 418 kts 265°
2026-04-27 14:11 51.74886 1.62563 32296 ft 420 kts 265°
2026-04-27 14:11 51.74282 1.53137 32287 ft 423 kts 265°
2026-04-27 14:12 51.73664 1.43681 32266 ft 424 kts 265°
2026-04-27 14:12 51.73039 1.34187 32282 ft 426 kts 265°
2026-04-27 14:13 51.72409 1.24722 32283 ft 428 kts 265°
2026-04-27 14:13 51.71766 1.15152 32277 ft 429 kts 265°
2026-04-27 14:14 51.71115 1.05559 32275 ft 430 kts 265°
2026-04-27 14:14 51.70472 0.95979 32244 ft 430 kts 266°
2026-04-27 14:15 51.69812 0.86460 32264 ft 430 kts 266°
2026-04-27 14:15 51.69147 0.76872 32266 ft 431 kts 266°
2026-04-27 14:16 51.68428 0.67270 32261 ft 432 kts 266°
2026-04-27 14:16 51.67740 0.57640 32260 ft 432 kts 266°
2026-04-27 14:17 51.67062 0.48060 32244 ft 433 kts 266°
2026-04-27 14:17 51.66359 0.38412 32260 ft 434 kts 267°
2026-04-27 14:18 51.65631 0.28763 32257 ft 435 kts 266°
2026-04-27 14:18 51.64896 0.19074 32261 ft 436 kts 266°
2026-04-27 14:19 51.64059 0.09368 32263 ft 439 kts 264°
2026-04-27 14:19 51.62966 -0.00248 32277 ft 440 kts 263°
2026-04-27 14:20 51.61892 -0.09975 32287 ft 440 kts 265°
2026-04-27 14:20 51.60967 -0.19722 32295 ft 439 kts 267°
2026-04-27 14:21 51.60199 -0.29505 32268 ft 440 kts 268°
2026-04-27 14:21 51.59420 -0.39231 32268 ft 441 kts 267°
2026-04-27 14:22 51.58603 -0.49026 32266 ft 442 kts 267°
2026-04-27 14:22 51.57765 -0.58852 32267 ft 442 kts 267°
2026-04-27 14:23 51.56922 -0.68637 32248 ft 442 kts 266°
2026-04-27 14:23 51.56070 -0.78421 32266 ft 442 kts 266°
2026-04-27 14:24 51.55215 -0.88160 32258 ft 442 kts 266°
2026-04-27 14:24 51.54347 -0.97960 32240 ft 443 kts 266°
2026-04-27 14:25 51.53471 -1.07765 32266 ft 444 kts 266°
2026-04-27 14:25 51.52487 -1.17593 32264 ft 450 kts 260°
2026-04-27 14:26 51.50493 -1.27147 32265 ft 456 kts 255°
2026-04-27 14:26 51.48318 -1.36757 32258 ft 457 kts 255°
2026-04-27 14:27 51.46194 -1.46393 32238 ft 458 kts 256°
2026-04-27 14:27 51.44104 -1.55995 32260 ft 459 kts 256°
2026-04-27 14:28 51.41985 -1.65698 32260 ft 461 kts 256°
2026-04-27 14:28 51.39862 -1.75419 32273 ft 462 kts 256°
2026-04-27 14:29 51.37847 -1.85129 32271 ft 462 kts 257°
2026-04-27 14:29 51.35836 -1.94911 32249 ft 462 kts 257°
2026-04-27 14:30 51.33808 -2.04679 32263 ft 463 kts 257°
2026-04-27 14:30 51.31758 -2.14460 32273 ft 464 kts 256°
2026-04-27 14:31 51.29704 -2.24198 32266 ft 465 kts 256°
2026-04-27 14:31 51.27625 -2.34010 32270 ft 466 kts 256°
2026-04-27 14:32 51.25529 -2.43854 32258 ft 468 kts 256°
2026-04-27 14:32 51.23432 -2.53652 32268 ft 470 kts 256°
2026-04-27 14:33 51.21308 -2.63536 32265 ft 471 kts 255°
2026-04-27 14:33 51.19166 -2.73450 32269 ft 472 kts 255°
2026-04-27 14:34 51.17027 -2.83305 32266 ft 473 kts 255°
2026-04-27 14:34 51.14863 -2.93227 32266 ft 474 kts 255°
2026-04-27 14:35 51.12688 -3.03154 32269 ft 474 kts 255°
2026-04-27 14:35 51.10519 -3.13014 32282 ft 475 kts 255°
2026-04-27 14:36 51.08307 -3.22956 32272 ft 476 kts 253°
2026-04-27 14:36 51.05171 -3.32335 32268 ft 482 kts 242°
2026-04-27 14:37 51.01661 -3.41367 32271 ft 483 kts 242°
2026-04-27 14:37 50.98134 -3.50472 32276 ft 483 kts 242°
2026-04-27 14:38 50.94637 -3.59602 32277 ft 484 kts 242°
2026-04-27 14:38 50.91161 -3.68697 32274 ft 485 kts 242°
2026-04-27 14:39 50.87654 -3.77844 32264 ft 485 kts 243°
2026-04-27 14:39 50.84140 -3.86975 32286 ft 486 kts 242°
2026-04-27 14:40 50.81209 -3.94562 32288 ft 487 kts 242°
2026-04-27 14:40 50.77093 -4.05187 32290 ft 488 kts 241°
2026-04-27 14:41 50.74128 -4.12801 32293 ft 489 kts 241°
2026-04-27 14:41 50.70555 -4.21952 32274 ft 490 kts 241°
2026-04-27 14:42 50.66389 -4.32583 32302 ft 490 kts 241°
2026-04-27 14:42 50.63390 -4.40210 32302 ft 491 kts 241°
2026-04-27 14:43 50.59777 -4.49370 32295 ft 492 kts 241°
2026-04-27 14:43 50.56151 -4.58531 32311 ft 493 kts 241°
2026-04-27 14:44 50.52512 -4.67691 32288 ft 494 kts 240°
2026-04-27 14:44 50.48880 -4.76800 32292 ft 494 kts 240°
2026-04-27 14:45 50.45217 -4.85957 32293 ft 495 kts 240°
2026-04-27 14:45 50.41545 -4.95103 32289 ft 496 kts 240°
2026-04-27 14:46 50.37877 -5.04208 32306 ft 496 kts 240°
2026-04-27 14:46 50.34176 -5.13363 32304 ft 496 kts 240°
2026-04-27 14:47 50.30477 -5.22483 32299 ft 496 kts 240°
2026-04-27 14:47 50.26792 -5.31537 32297 ft 497 kts 239°
2026-04-27 14:48 50.23066 -5.40657 32294 ft 497 kts 239°
2026-04-27 14:48 50.17483 -5.54271 32280 ft 497 kts 239°
2026-04-27 14:49 50.13736 -5.63368 32293 ft 498 kts 239°
2026-04-27 14:49 50.09827 -5.72239 32295 ft 499 kts 236°
2026-04-27 14:50 50.05710 -5.80969 32292 ft 499 kts 235°
2026-04-27 14:50 50.01592 -5.89704 32303 ft 501 kts 235°
2026-04-27 14:51 49.97511 -5.98437 32294 ft 502 kts 235°
2026-04-27 14:51 49.93411 -6.07231 32309 ft 503 kts 235°
2026-04-27 14:52 49.89314 -6.15993 32323 ft 504 kts 235°
2026-04-27 14:52 49.85184 -6.24793 32322 ft 505 kts 235°
2026-04-27 14:53 49.81036 -6.33596 32319 ft 505 kts 235°
2026-04-27 14:53 49.76899 -6.42348 32324 ft 507 kts 234°
2026-04-27 14:54 49.72711 -6.51177 32326 ft 508 kts 234°
2026-04-27 14:54 49.68524 -6.59976 32312 ft 509 kts 234°
2026-04-27 14:55 49.64344 -6.68730 32310 ft 509 kts 234°
2026-04-27 14:55 49.60125 -6.77537 32301 ft 509 kts 234°
2026-04-27 14:56 49.55928 -6.86270 32311 ft 509 kts 234°
2026-04-27 14:56 49.51690 -6.95059 32312 ft 511 kts 234°
2026-04-27 14:57 49.47441 -7.03841 32312 ft 511 kts 233°
2026-04-27 14:57 49.43185 -7.12608 32307 ft 511 kts 233°
2026-04-27 14:58 49.38954 -7.21297 32304 ft 511 kts 233°
2026-04-27 14:58 49.34688 -7.30029 32309 ft 511 kts 233°
2026-04-27 14:59 49.30415 -7.38746 32306 ft 511 kts 233°
2026-04-27 14:59 49.26129 -7.47462 32314 ft 512 kts 233°
2026-04-27 15:00 49.21838 -7.56159 32297 ft 512 kts 233°
2026-04-27 15:00 49.17567 -7.64788 32307 ft 511 kts 233°
2026-04-27 15:01 49.13282 -7.73419 32307 ft 511 kts 233°
2026-04-27 15:01 49.08975 -7.82065 32306 ft 511 kts 233°
2026-04-27 15:02 49.04664 -7.90692 32305 ft 511 kts 233°
2026-04-27 15:02 49.00374 -7.99253 32305 ft 511 kts 233°
2026-04-27 15:03 48.96109 -8.07929 32303 ft 510 kts 234°
2026-04-27 15:03 48.91912 -8.16657 32306 ft 510 kts 234°
2026-04-27 15:04 48.87738 -8.25310 32303 ft 509 kts 234°
2026-04-27 15:04 48.83529 -8.33968 32286 ft 509 kts 234°
2026-04-27 15:05 48.79303 -8.42616 32302 ft 509 kts 234°
2026-04-27 15:05 48.75084 -8.51220 32319 ft 508 kts 234°
2026-04-27 15:06 48.70887 -8.59754 32310 ft 508 kts 233°
2026-04-27 15:06 48.66654 -8.68335 32303 ft 507 kts 233°
2026-04-27 15:07 48.62420 -8.76892 32295 ft 506 kts 233°
2026-04-27 15:07 48.58210 -8.85373 32301 ft 506 kts 233°
2026-04-27 15:08 48.53973 -8.93882 32305 ft 506 kts 233°
2026-04-27 15:08 48.49733 -9.02370 32308 ft 506 kts 233°
2026-04-27 15:09 48.45506 -9.10804 32304 ft 507 kts 233°
2026-04-27 15:09 48.41250 -9.19271 32308 ft 507 kts 233°
2026-04-27 15:10 48.36981 -9.27737 32301 ft 507 kts 233°
2026-04-27 15:10 48.32698 -9.36205 32305 ft 508 kts 233°
2026-04-27 15:11 48.28433 -9.44609 32304 ft 508 kts 233°
2026-04-27 15:11 48.24135 -9.53053 32314 ft 508 kts 233°
2026-04-27 15:12 48.19833 -9.61479 32298 ft 508 kts 233°
2026-04-27 15:12 48.15533 -9.69876 32296 ft 507 kts 233°
2026-04-27 15:13 48.11261 -9.78193 32299 ft 505 kts 233°
2026-04-27 15:13 48.06970 -9.86521 32288 ft 504 kts 233°
2026-04-27 15:14 48.02715 -9.94759 32294 ft 503 kts 233°
2026-04-27 15:14 47.98494 -10.03129 32308 ft 502 kts 236°
2026-04-27 15:15 47.94580 -10.11789 32297 ft 502 kts 237°
2026-04-27 15:15 47.90769 -10.20417 32272 ft 501 kts 237°
2026-04-27 15:16 47.86903 -10.29071 32298 ft 500 kts 237°
2026-04-27 15:16 47.83017 -10.37664 32304 ft 500 kts 237°
2026-04-27 15:17 47.79136 -10.46194 32303 ft 500 kts 237°
2026-04-27 15:17 47.75222 -10.54768 32304 ft 500 kts 237°
2026-04-27 15:18 47.71308 -10.63321 32303 ft 500 kts 237°
2026-04-27 15:18 47.67407 -10.71820 32293 ft 500 kts 237°
2026-04-27 15:19 47.63478 -10.80355 32302 ft 500 kts 237°
2026-04-27 15:19 47.59546 -10.88869 32300 ft 499 kts 236°
2026-04-27 15:20 47.55634 -10.97313 32286 ft 499 kts 236°
2026-04-27 15:20 47.51698 -11.05784 32294 ft 498 kts 236°
2026-04-27 15:21 47.47759 -11.14234 32304 ft 498 kts 236°
2026-04-27 15:21 47.43819 -11.22662 32314 ft 498 kts 236°
2026-04-27 15:22 47.39896 -11.31026 32277 ft 498 kts 236°
2026-04-27 15:22 47.35951 -11.39412 32296 ft 497 kts 236°
2026-04-27 15:23 47.32001 -11.47785 32301 ft 496 kts 236°
2026-04-27 15:23 47.28069 -11.56093 32302 ft 495 kts 236°
2026-04-27 15:24 47.24116 -11.64419 32301 ft 495 kts 236°
2026-04-27 15:24 47.20164 -11.72720 32312 ft 495 kts 236°
2026-04-27 15:25 47.16228 -11.80962 32305 ft 495 kts 236°
2026-04-27 15:25 47.12263 -11.89240 32307 ft 494 kts 236°
2026-04-27 15:26 47.08299 -11.97490 32307 ft 494 kts 236°
2026-04-27 15:26 47.04355 -12.05676 32308 ft 494 kts 236°
2026-04-27 15:27 47.00385 -12.13889 32315 ft 494 kts 236°
2026-04-27 15:27 46.96393 -12.22126 32305 ft 494 kts 236°
2026-04-27 15:28 46.92431 -12.30276 32331 ft 494 kts 236°
2026-04-27 15:28 46.88440 -12.38461 32299 ft 494 kts 236°
2026-04-27 15:29 46.84440 -12.46639 32306 ft 493 kts 235°
2026-04-27 15:29 46.81120 -12.53411 32311 ft 493 kts 235°
2026-04-27 15:30 46.76470 -12.62866 32317 ft 493 kts 235°
2026-04-27 15:30 46.73132 -12.69633 32313 ft 493 kts 235°
2026-04-27 15:31 46.69119 -12.77749 32313 ft 492 kts 235°
2026-04-27 15:31 46.65107 -12.85836 32325 ft 492 kts 235°
2026-04-27 15:32 46.61093 -12.93907 32306 ft 492 kts 235°
2026-04-27 15:32 46.57082 -13.01946 32310 ft 491 kts 235°
2026-04-27 15:33 46.53066 -13.09973 32308 ft 490 kts 235°
2026-04-27 15:33 46.49082 -13.17913 32312 ft 489 kts 235°
2026-04-27 15:34 46.45049 -13.25929 32316 ft 489 kts 235°
2026-04-27 15:34 46.41052 -13.33849 32315 ft 489 kts 235°
2026-04-27 15:35 46.37025 -13.41807 32318 ft 489 kts 235°
2026-04-27 15:35 46.32990 -13.49759 32307 ft 489 kts 235°
2026-04-27 15:36 46.28974 -13.57649 32309 ft 488 kts 234°
2026-04-27 15:36 46.24932 -13.65569 32316 ft 488 kts 234°
2026-04-27 15:37 46.20917 -13.73415 32300 ft 488 kts 234°
2026-04-27 15:37 46.16871 -13.81297 32310 ft 488 kts 234°
2026-04-27 15:38 46.12822 -13.89165 32317 ft 488 kts 234°
2026-04-27 15:38 46.08787 -13.96982 32326 ft 488 kts 234°
2026-04-27 15:39 46.04721 -14.04838 32303 ft 488 kts 234°
2026-04-27 15:39 46.00663 -14.12657 32314 ft 487 kts 234°
2026-04-27 15:40 45.96595 -14.20474 32313 ft 486 kts 234°
2026-04-27 15:40 45.92561 -14.28202 32318 ft 486 kts 234°
2026-04-27 15:41 45.88495 -14.35972 32299 ft 485 kts 234°
2026-04-27 15:41 45.84434 -14.43710 32314 ft 485 kts 234°
2026-04-27 15:42 45.80369 -14.51435 32320 ft 485 kts 234°
2026-04-27 15:42 45.76327 -14.59096 32313 ft 485 kts 234°
2026-04-27 15:43 45.72245 -14.66811 32302 ft 485 kts 234°
2026-04-27 15:43 45.68151 -14.74528 32311 ft 485 kts 234°
2026-04-27 15:44 45.64083 -14.82175 32312 ft 485 kts 234°
2026-04-27 15:44 45.59987 -14.89853 32315 ft 486 kts 234°
2026-04-27 15:45 45.55880 -14.97531 32302 ft 485 kts 234°
2026-04-27 15:45 45.51799 -15.05140 32299 ft 484 kts 234°
2026-04-27 15:46 45.47698 -15.12766 32301 ft 483 kts 234°
2026-04-27 15:46 45.43611 -15.20346 32312 ft 481 kts 234°
2026-04-27 15:47 45.39553 -15.27852 32308 ft 480 kts 234°
2026-04-27 15:47 45.35471 -15.35382 32311 ft 479 kts 233°
2026-04-27 15:48 45.31400 -15.42871 32332 ft 478 kts 234°
2026-04-27 15:49 45.25289 -15.54077 32306 ft 477 kts 234°
2026-04-27 15:49 45.21232 -15.61493 32286 ft 477 kts 233°
2026-04-27 15:50 45.17157 -15.68923 32306 ft 476 kts 233°
2026-04-27 15:50 45.13085 -15.76329 32308 ft 476 kts 233°
2026-04-27 15:51 45.09029 -15.83685 32308 ft 476 kts 233°
2026-04-27 15:51 45.04950 -15.91067 32318 ft 476 kts 234°
2026-04-27 15:52 45.00859 -15.98451 32305 ft 476 kts 233°
2026-04-27 15:52 44.96468 -16.05398 32318 ft 477 kts 227°
2026-04-27 15:53 44.91742 -16.12025 32305 ft 477 kts 226°
2026-04-27 15:53 44.87047 -16.18573 32281 ft 477 kts 226°
2026-04-27 15:54 44.82354 -16.25199 32300 ft 476 kts 226°
2026-04-27 15:54 44.77686 -16.31826 32310 ft 476 kts 227°
2026-04-27 15:55 44.73055 -16.38397 32291 ft 475 kts 227°
2026-04-27 15:55 44.68400 -16.44984 32296 ft 474 kts 227°
2026-04-27 15:56 44.63738 -16.51560 32289 ft 473 kts 227°
2026-04-27 15:56 44.59114 -16.58067 32292 ft 472 kts 227°
2026-04-27 15:57 44.54477 -16.64577 32304 ft 471 kts 227°
2026-04-27 15:57 44.49833 -16.71080 32293 ft 470 kts 227°
2026-04-27 15:58 44.45227 -16.77516 32285 ft 469 kts 227°
2026-04-27 15:58 44.40604 -16.83960 32293 ft 469 kts 227°
2026-04-27 15:59 44.35972 -16.90402 32295 ft 469 kts 227°
2026-04-27 15:59 44.31367 -16.96791 32292 ft 470 kts 227°
2026-04-27 16:00 44.26714 -17.03232 32279 ft 470 kts 227°
2026-04-27 16:00 44.22084 -17.09624 32292 ft 471 kts 227°
2026-04-27 16:01 44.17421 -17.16048 32293 ft 471 kts 227°
2026-04-27 16:01 44.12738 -17.22485 32288 ft 472 kts 227°
2026-04-27 16:02 44.08056 -17.28905 32269 ft 472 kts 227°
2026-04-27 16:02 44.03393 -17.35282 32288 ft 472 kts 227°
2026-04-27 16:03 43.98685 -17.41707 32276 ft 472 kts 227°
2026-04-27 16:03 43.94030 -17.48045 32282 ft 471 kts 227°
2026-04-27 16:04 43.89339 -17.54417 32280 ft 471 kts 227°
2026-04-27 16:04 43.84655 -17.60764 32272 ft 470 kts 227°
2026-04-27 16:05 43.79976 -17.67090 32284 ft 469 kts 227°
2026-04-27 16:05 43.75301 -17.73397 32274 ft 469 kts 227°
2026-04-27 16:06 43.70649 -17.79658 32274 ft 469 kts 227°
2026-04-27 16:06 43.65965 -17.85948 32268 ft 468 kts 227°
2026-04-27 16:07 43.61292 -17.92207 32275 ft 468 kts 227°
2026-04-27 16:07 43.56616 -17.98457 32275 ft 468 kts 227°
2026-04-27 16:08 43.51968 -18.04657 32269 ft 468 kts 227°
2026-04-27 16:08 43.47279 -18.10896 32255 ft 467 kts 227°
2026-04-27 16:09 43.42596 -18.17113 32267 ft 467 kts 227°
2026-04-27 16:09 43.35600 -18.26374 32272 ft 466 kts 227°
2026-04-27 16:10 43.26275 -18.38670 32269 ft 465 kts 227°
2026-04-27 16:11 43.19259 -18.47886 32259 ft 464 kts 227°
2026-04-27 16:12 43.12249 -18.57062 32264 ft 463 kts 226°
2026-04-27 16:13 43.05275 -18.66162 32267 ft 463 kts 226°
2026-04-27 16:13 42.98283 -18.75255 32264 ft 462 kts 226°
2026-04-27 16:14 42.88943 -18.87354 32264 ft 462 kts 226°
2026-04-27 16:15 42.79636 -18.99358 32265 ft 462 kts 226°
2026-04-27 16:16 42.71071 -19.10359 32261 ft 462 kts 226°
2026-04-27 16:17 42.61745 -19.22287 32260 ft 460 kts 226°
2026-04-27 16:18 42.52394 -19.34196 32261 ft 459 kts 226°
2026-04-27 16:19 42.47758 -19.40082 32258 ft 459 kts 226°
2026-04-27 16:20 42.38442 -19.51870 32256 ft 458 kts 226°
2026-04-27 16:21 42.31446 -19.60691 32253 ft 458 kts 226°
2026-04-27 16:22 42.22157 -19.72359 32258 ft 457 kts 226°
2026-04-27 16:22 42.15163 -19.81112 32253 ft 457 kts 226°
2026-04-27 16:23 42.08170 -19.89836 32247 ft 456 kts 226°
2026-04-27 16:24 42.03522 -19.95622 32259 ft 455 kts 226°
2026-04-27 16:25 41.94349 -20.07283 32247 ft 453 kts 227°
2026-04-27 16:26 41.85371 -20.19057 32252 ft 451 kts 227°
2026-04-27 16:27 41.76346 -20.30775 32257 ft 450 kts 227°
2026-04-27 16:28 41.65096 -20.45297 32248 ft 450 kts 227°
2026-04-27 16:29 41.53802 -20.59805 32243 ft 450 kts 226°
2026-04-27 16:30 41.44755 -20.71373 32244 ft 450 kts 226°
2026-04-27 16:31 41.33475 -20.85730 32243 ft 449 kts 226°
2026-04-27 16:32 41.26670 -20.94356 32239 ft 449 kts 226°
2026-04-27 16:33 41.19906 -21.02905 32239 ft 449 kts 226°
2026-04-27 16:33 41.15370 -21.08623 32239 ft 449 kts 226°
2026-04-27 16:34 41.10834 -21.14331 32227 ft 448 kts 226°
2026-04-27 16:34 41.06331 -21.19985 32233 ft 448 kts 226°
2026-04-27 16:35 41.01800 -21.25663 32235 ft 447 kts 226°
2026-04-27 16:36 40.95032 -21.34123 32232 ft 447 kts 226°
2026-04-27 16:36 40.90499 -21.39776 32231 ft 448 kts 226°
2026-04-27 16:37 40.85959 -21.45425 32233 ft 448 kts 226°
2026-04-27 16:37 40.81438 -21.51041 32232 ft 448 kts 226°
2026-04-27 16:38 40.76893 -21.56675 32227 ft 448 kts 226°
2026-04-27 16:38 40.72341 -21.62307 32228 ft 448 kts 226°
2026-04-27 16:39 40.67789 -21.67927 32224 ft 448 kts 226°
2026-04-27 16:39 40.63232 -21.73543 32226 ft 448 kts 226°
2026-04-27 16:40 40.58700 -21.79117 32228 ft 448 kts 226°
2026-04-27 16:40 40.54137 -21.84717 32224 ft 448 kts 226°
2026-04-27 16:41 40.49603 -21.90272 32227 ft 447 kts 226°
2026-04-27 16:41 40.45045 -21.95845 32217 ft 447 kts 226°
2026-04-27 16:42 40.40494 -22.01399 32226 ft 446 kts 226°
2026-04-27 16:42 40.35944 -22.06941 32222 ft 446 kts 226°
2026-04-27 16:43 40.31418 -22.12443 32219 ft 446 kts 226°
2026-04-27 16:43 40.26863 -22.17970 32221 ft 446 kts 226°
2026-04-27 16:44 40.22305 -22.23490 32222 ft 446 kts 225°
2026-04-27 16:44 40.17746 -22.29000 32215 ft 446 kts 226°
2026-04-27 16:45 40.13199 -22.34486 32221 ft 446 kts 226°
2026-04-27 16:45 40.08640 -22.39975 32218 ft 447 kts 225°
2026-04-27 16:46 40.04060 -22.45480 32216 ft 447 kts 225°
2026-04-27 16:46 39.99475 -22.50979 32216 ft 447 kts 226°
2026-04-27 16:47 39.94876 -22.56485 32212 ft 447 kts 226°
2026-04-27 16:47 39.90299 -22.61954 32213 ft 447 kts 226°
2026-04-27 16:48 39.85699 -22.67440 32215 ft 448 kts 226°
2026-04-27 16:48 39.81124 -22.72886 32211 ft 448 kts 226°
2026-04-27 16:49 39.74218 -22.81088 32211 ft 448 kts 225°
2026-04-27 16:49 39.69641 -22.86511 32213 ft 448 kts 225°
2026-04-27 16:50 39.65022 -22.91972 32201 ft 448 kts 226°
2026-04-27 16:50 39.60409 -22.97418 32205 ft 448 kts 225°
2026-04-27 16:51 39.55830 -23.02812 32206 ft 448 kts 225°
2026-04-27 16:51 39.51212 -23.08242 32202 ft 448 kts 225°
2026-04-27 16:52 39.46582 -23.13676 32203 ft 448 kts 225°
2026-04-27 16:52 39.41975 -23.19074 32198 ft 448 kts 225°
2026-04-27 16:53 39.37341 -23.24493 32198 ft 448 kts 225°
2026-04-27 16:53 39.32734 -23.29871 32213 ft 449 kts 225°
2026-04-27 16:54 39.28093 -23.35277 32207 ft 449 kts 225°
2026-04-27 16:54 39.23437 -23.40692 32201 ft 449 kts 225°
2026-04-27 16:55 39.18820 -23.46051 32199 ft 449 kts 225°
2026-04-27 16:55 39.14173 -23.51435 32194 ft 448 kts 225°
2026-04-27 16:56 39.09529 -23.56806 32192 ft 448 kts 225°
2026-04-27 16:56 39.04889 -23.62164 32196 ft 447 kts 225°
2026-04-27 16:57 39.00319 -23.67520 32196 ft 445 kts 229°
2026-04-27 16:57 38.96659 -23.73844 32200 ft 440 kts 239°
2026-04-27 16:58 38.93209 -23.80358 32197 ft 440 kts 238°
2026-04-27 16:58 38.89760 -23.86789 32195 ft 440 kts 238°
2026-04-27 16:59 38.86273 -23.93242 32187 ft 440 kts 238°
2026-04-27 16:59 38.84521 -23.96476 31809 ft 441 kts 238°
2026-04-27 16:59 38.82784 -23.99678 31402 ft 434 kts 238°
2026-04-27 17:00 38.80484 -24.03908 30817 ft 429 kts 238°
2026-04-27 17:00 38.77664 -24.09092 30054 ft 423 kts 238°
2026-04-27 17:00 38.75983 -24.12180 29543 ft 419 kts 238°
2026-04-27 17:01 38.74341 -24.15194 29088 ft 415 kts 238°
2026-04-27 17:01 38.72700 -24.18203 28603 ft 411 kts 238°
2026-04-27 17:01 38.71066 -24.21196 28150 ft 407 kts 238°
2026-04-27 17:01 38.69450 -24.24153 27705 ft 403 kts 238°
2026-04-27 17:02 38.67844 -24.27092 27232 ft 400 kts 237°
2026-04-27 17:02 38.66250 -24.30005 26799 ft 397 kts 237°
2026-04-27 17:02 38.64689 -24.32853 26363 ft 394 kts 237°
2026-04-27 17:02 38.63117 -24.35722 25929 ft 392 kts 237°
2026-04-27 17:03 38.61554 -24.38569 25492 ft 390 kts 237°
2026-04-27 17:03 38.59996 -24.41407 25053 ft 388 kts 237°
2026-04-27 17:03 38.58446 -24.44226 24605 ft 386 kts 237°
2026-04-27 17:03 38.56900 -24.47037 24157 ft 385 kts 237°
2026-04-27 17:04 38.55378 -24.49801 23714 ft 384 kts 237°
2026-04-27 17:04 38.53835 -24.52602 23213 ft 382 kts 237°
2026-04-27 17:04 38.52824 -24.54434 22915 ft 380 kts 237°
2026-04-27 17:04 38.51303 -24.57189 22460 ft 377 kts 236°
2026-04-27 17:05 38.49301 -24.60812 21885 ft 374 kts 236°
2026-04-27 17:05 38.47808 -24.63511 21465 ft 371 kts 236°
2026-04-27 17:05 38.46818 -24.65301 21179 ft 369 kts 236°
2026-04-27 17:05 38.45340 -24.67970 20757 ft 366 kts 236°
2026-04-27 17:06 38.43871 -24.70621 20343 ft 364 kts 236°
2026-04-27 17:06 38.42414 -24.73247 19937 ft 361 kts 236°
2026-04-27 17:06 38.40983 -24.75826 19530 ft 359 kts 236°
2026-04-27 17:06 38.39542 -24.78418 19120 ft 357 kts 235°
2026-04-27 17:07 38.38109 -24.80996 18710 ft 355 kts 235°
2026-04-27 17:07 38.36682 -24.83562 18270 ft 354 kts 235°
2026-04-27 17:07 38.35259 -24.86117 17821 ft 351 kts 234°
2026-04-27 17:07 38.33848 -24.88648 17397 ft 349 kts 234°
2026-04-27 17:08 38.32444 -24.91167 16991 ft 346 kts 234°
2026-04-27 17:08 38.31051 -24.93661 16583 ft 344 kts 234°
2026-04-27 17:08 38.29668 -24.96138 16186 ft 342 kts 234°
2026-04-27 17:08 38.28311 -24.98565 15795 ft 340 kts 234°
2026-04-27 17:09 38.26947 -25.01003 15412 ft 337 kts 233°
2026-04-27 17:09 38.25586 -25.03434 15012 ft 336 kts 234°
2026-04-27 17:09 38.24230 -25.05854 14622 ft 335 kts 233°
2026-04-27 17:09 38.22879 -25.08263 14225 ft 334 kts 233°
2026-04-27 17:10 38.21528 -25.10672 13797 ft 334 kts 233°
2026-04-27 17:10 38.20183 -25.13067 13386 ft 332 kts 233°
2026-04-27 17:10 38.18855 -25.15430 12985 ft 330 kts 233°
2026-04-27 17:10 38.17519 -25.17806 12591 ft 328 kts 233°
2026-04-27 17:11 38.16194 -25.20161 12211 ft 326 kts 233°
2026-04-27 17:11 38.13567 -25.24824 11451 ft 323 kts 233°
2026-04-27 17:11 38.12255 -25.27151 11082 ft 321 kts 233°
2026-04-27 17:12 38.09700 -25.31678 10652 ft 307 kts 233°
2026-04-27 17:12 38.08488 -25.33823 10524 ft 298 kts 233°
2026-04-27 17:12 38.07294 -25.35935 10391 ft 290 kts 233°
2026-04-27 17:13 38.06130 -25.37993 10270 ft 282 kts 233°
2026-04-27 17:13 38.04997 -25.39995 10113 ft 276 kts 233°
2026-04-27 17:13 38.03880 -25.41966 9834 ft 273 kts 233°
2026-04-27 17:13 38.02775 -25.43915 9548 ft 272 kts 232°
2026-04-27 17:14 38.01677 -25.45851 9271 ft 270 kts 232°
2026-04-27 17:14 38.00584 -25.47777 8997 ft 268 kts 233°
2026-04-27 17:14 37.99507 -25.49673 8710 ft 267 kts 233°
2026-04-27 17:14 37.98425 -25.51578 8428 ft 265 kts 232°
2026-04-27 17:15 37.97355 -25.53463 8159 ft 263 kts 233°
2026-04-27 17:15 37.96286 -25.55344 7900 ft 261 kts 232°
2026-04-27 17:15 37.95226 -25.57206 7621 ft 260 kts 232°
2026-04-27 17:15 37.94184 -25.59035 7359 ft 258 kts 232°
2026-04-27 17:16 37.93273 -25.60990 7071 ft 260 kts 249°
2026-04-27 17:16 37.92975 -25.63253 6835 ft 262 kts 263°
2026-04-27 17:16 37.92920 -25.65573 6438 ft 266 kts 265°
2026-04-27 17:16 37.92906 -25.67934 6085 ft 268 kts 265°
2026-04-27 17:17 37.92889 -25.70297 5804 ft 266 kts 264°
2026-04-27 17:17 37.92859 -25.72632 5528 ft 264 kts 265°
2026-04-27 17:17 37.92823 -25.74926 5259 ft 263 kts 263°
2026-04-27 17:18 37.92745 -25.79364 5043 ft 240 kts 263°
2026-04-27 17:18 37.92528 -25.81412 4774 ft 228 kts 250°
2026-04-27 17:18 37.92005 -25.83236 4552 ft 213 kts 240°
2026-04-27 17:18 37.91266 -25.84793 4348 ft 199 kts 229°
2026-04-27 17:19 37.90398 -25.86037 4255 ft 183 kts 219°
2026-04-27 17:19 37.89442 -25.87009 4156 ft 171 kts 211°
2026-04-27 17:19 37.88424 -25.87743 4091 ft 168 kts 204°
2026-04-27 17:19 37.87319 -25.88273 3945 ft 173 kts 195°
2026-04-27 17:20 37.86144 -25.88577 3794 ft 171 kts 186°
2026-04-27 17:20 37.84968 -25.88648 3599 ft 168 kts 180°
2026-04-27 17:20 37.83836 -25.88544 3416 ft 159 kts 171°
2026-04-27 17:20 37.82814 -25.88167 3244 ft 149 kts 163°
2026-04-27 17:21 37.81884 -25.87657 3120 ft 140 kts 158°
2026-04-27 17:21 37.81073 -25.87049 2961 ft 136 kts 150°
2026-04-27 17:21 37.80295 -25.86354 2795 ft 135 kts 148°
2026-04-27 17:21 37.79627 -25.85564 2694 ft 132 kts 139°
2026-04-27 17:22 37.79070 -25.84612 2533 ft 136 kts 132°
2026-04-27 17:22 37.78583 -25.83549 2347 ft 142 kts 123°
2026-04-27 17:22 37.78186 -25.82395 2160 ft 142 kts 122°
2026-04-27 17:22 37.77826 -25.81257 1965 ft 140 kts 120°
2026-04-27 17:23 37.77468 -25.80129 1786 ft 138 kts 120°
2026-04-27 17:23 37.77127 -25.79021 1589 ft 135 kts 120°
2026-04-27 17:23 37.76777 -25.77932 1426 ft 131 kts 122°
2026-04-27 17:23 37.76431 -25.76843 1258 ft 137 kts 118°
2026-04-27 17:24 37.76079 -25.75737 1093 ft 135 kts 115°
2026-04-27 17:24 37.75736 -25.74633 908 ft 138 kts 115°
2026-04-27 17:24 37.75373 -25.73489 726 ft 141 kts 114°
2026-04-27 17:24 37.75022 -25.72361 530 ft 135 kts 114°
2026-04-27 17:25 37.74670 -25.71262 359 ft 137 kts 113°
2026-04-27 17:25 37.74333 -25.70179 244 ft 123 kts 114°
2026-04-27 17:25 37.74078 -25.69382 217 ft 68 kts 112°
2026-04-27 17:25 37.73982 -25.69071 208 ft 16 kts 111°
2026-04-27 17:26 37.73951 -25.68932 198 ft 17 kts 117°
2026-04-27 17:26 37.73928 -25.68951 196 ft 4 kts 282°
2026-04-27 17:26 37.73954 -25.69008 205 ft 11 kts 300°
2026-04-27 17:26 37.73998 -25.69130 210 ft 20 kts 291°
2026-04-27 17:27 37.74059 -25.69325 219 ft 28 kts 291°
2026-04-27 17:27 37.74141 -25.69581 224 ft 35 kts 292°
2026-04-27 17:27 37.74237 -25.69890 233 ft 42 kts 292°
2026-04-27 17:27 37.74361 -25.70222 245 ft 41 kts 307°
2026-04-27 17:28 37.74556 -25.70426 265 ft 30 kts 317°
2026-04-27 17:28 37.74654 -25.70647 274 ft 28 kts 292°
2026-04-27 17:28 37.74793 -25.71080 270 ft 24 kts 291°
2026-04-27 17:29 37.74832 -25.71138 271 ft 5 kts 20°
2026-04-27 17:29 37.74863 -25.71123 270 ft 5 kts 23°
2026-04-27 17:29 37.74879 -25.71115 270 ft 2 kts 22°
2026-04-27 17:29 37.74881 -25.71113 270 ft 0 kts 22°